Tongxin Jishu Shiyan 22

operational
NORAD ID: 66990 Int'l Des: 2025-290 Owner: ZZB/SAST Country: CN
MEOELLIPTICALHEO_ELLIPTICALSEMI_SYNC

关于 Tongxin Jishu Shiyan 22

正在加载描述...

实时位置

正在加载3D地球...

即将过境

高度历史

Altitude vs Time

uPlot chart will show altitude changes over time

两行轨道根数

1 66990U 25290A 25344.29968569 -.00000038 00000-0 79788-1 0 9992
2 66990 20.1261 301.1464 6664534 180.6877 177.6237 2.15443148 32
Epoch: Dec 10, 2025 • Age: 90 hours

当前状态

高度 35140.2 km
速度 1.86 km/s
星下点 3.29°N, 151.96°W
发射日期 Dec 9, 2025
运行时间 5 days
类型 other

技术详情

分类 Payload
质量 5000.00 kg
干质量 6000.00 kg
总质量 5000.00 kg
长度 5.00 m
直径 4.00 m
跨度 30.00 m
形状 Box+ 2 pan+dish
制造商 SAST
平台类型 TJSxx
阶段状态 In Orbit
所有者/国家 ZZB/SAST/CN

大型星座

Loading constellations...